TimeCST,TemperatureF,Dew PointF,Humidity,Sea Level PressureIn,VisibilityMPH,Wind Direction,Wind SpeedMPH,Gust SpeedMPH,PrecipitationIn,Events,Conditions,WindDirDegrees,DateUTC
12:53 AM,10.9,1.9,67,30.21,10.0,West,16.1,-,N/A,,Clear,280,2013-01-14 06:53:00
1:53 AM,10.0,1.9,70,30.24,10.0,West,11.5,-,N/A,,Clear,270,2013-01-14 07:53:00
2:53 AM,10.0,1.0,67,30.28,10.0,West,10.4,-,N/A,,Clear,270,2013-01-14 08:53:00
3:53 AM,9.0,1.0,70,30.30,10.0,West,11.5,-,N/A,,Clear,270,2013-01-14 09:53:00
4:53 AM,8.1,1.0,73,30.32,10.0,West,9.2,-,N/A,,Clear,260,2013-01-14 10:53:00
5:53 AM,8.6,1.4,73,30.31,10.0,West,10.4,-,N/A,,Clear,260,2013-01-14 11:53:00
6:53 AM,8.1,1.0,73,30.40,10.0,SW,6.9,-,N/A,,Clear,230,2013-01-14 12:53:00
7:53 AM,8.1,1.9,76,30.43,10.0,SW,8.1,-,N/A,,Clear,230,2013-01-14 13:53:00
8:53 AM,10.0,3.0,73,30.45,10.0,WSW,10.4,-,N/A,,Clear,250,2013-01-14 14:53:00
9:53 AM,12.9,3.9,67,30.43,10.0,West,8.1,-,N/A,,Clear,270,2013-01-14 15:53:00
10:53 AM,14.0,9.0,80,30.40,10.0,WSW,10.4,-,N/A,,Clear,240,2013-01-14 16:53:00
11:53 AM,18.0,9.0,68,30.38,10.0,WSW,11.5,-,N/A,,Clear,250,2013-01-14 17:53:00
12:53 PM,19.4,8.6,63,30.34,10.0,WSW,10.4,-,N/A,,Clear,240,2013-01-14 18:53:00
1:53 PM,21.9,9.0,58,30.38,10.0,WSW,10.4,-,N/A,,Clear,240,2013-01-14 19:53:00
2:53 PM,21.2,8.6,58,30.34,10.0,WSW,15.0,24.2,N/A,,Clear,240,2013-01-14 20:53:00
3:53 PM,19.4,8.6,63,30.36,10.0,West,16.1,21.9,N/A,,Clear,280,2013-01-14 21:53:00
4:53 PM,19.0,9.0,65,30.41,10.0,West,12.7,-,N/A,,Clear,270,2013-01-14 22:53:00
5:53 PM,18.0,8.1,65,30.41,10.0,West,6.9,-,N/A,,Clear,280,2013-01-14 23:53:00
6:53 PM,16.0,8.1,71,30.42,10.0,West,5.8,-,N/A,,Clear,260,2013-01-15 00:53:00
7:53 PM,16.0,8.1,71,30.42,10.0,West,6.9,-,N/A,,Clear,260,2013-01-15 01:53:00
8:53 PM,15.1,8.1,74,30.41,10.0,Variable,4.6,-,N/A,,Clear,0,2013-01-15 02:53:00
9:53 PM,15.1,8.1,74,30.40,10.0,SW,3.5,-,N/A,,Clear,220,2013-01-15 03:53:00
10:53 PM,14.0,7.0,74,30.41,10.0,WSW,3.5,-,N/A,,Clear,240,2013-01-15 04:53:00
11:53 PM,14.0,7.0,74,30.41,10.0,WSW,3.5,-,N/A,,Clear,250,2013-01-15 05:53:00